Flag for China Weather past 2 weeks in Chengdu, Sichuan, China

Now
46 °F

Fog.


Feels Like: 45 °F
Forecast: 44 / 51 °F
Wind: 3 mph from North

Location: Chengdu Airport

Current Time: Dec 26, 2014 at 3:26:07 AM

Latest Report: Dec 26, 2014 at 3:00 AM


Visibility: 3 mi

Pressure: 30.24 "Hg

Humidity: 87%

Dew point: 43 °F

Location of ChengduLocation

Historic Weather in Chengdu — Graph

°F

Chengdu temperature yesterday

Maximum temperature yesterday: 54 °F (at 2:00 PM)
Minimum temperature yesterday: 43 °F (at 3:00 AM)
Average temperature yesterday: 48 °F

Past Weeks' High & Low Weather Summary

 TemperatureHumidityPressure
High57 °F (Dec 23, 2:00 PM)93% (Dec 12, 5:00 AM)30.74 "Hg (Dec 12, 5:00 AM)
Low30 °F (Dec 19, 5:00 AM)17% (Dec 16, 12:00 AM)30.07 "Hg (Dec 14, 4:00 PM)
Average45 °F59%30.36 "Hg
* Reported Dec 11 2:00 AM — Dec 26 2:00 AM, Chengdu, Weather by CustomWeather, © 2014

Note: Actual official high and low records may vary slightly from our data, if they occured in-between our weather recording intervals... More about our weather records

Advertising

Chengdu weather history for previous 24 hours

 ConditionsComfort  
Time TempWeatherWind HumidityBarometerVisibility
2:00 AM
Dec 26
48 °FFog.1 mph71%30.24 "Hg2 mi
1:00 AM48 °FPassing clouds.1 mph66%30.24 "Hg3 mi
12:00 AM50 °FHaze.3 mph58%30.24 "Hg3 mi
11:00 PM
Dec 25
50 °FHaze.6 mph58%30.24 "Hg3 mi
10:00 PM50 °FHaze.3 mph58%30.24 "Hg3 mi
9:00 PM50 °FHaze.6 mph58%30.21 "Hg4 mi
8:00 PM50 °FHaze.3 mph54%30.21 "Hg4 mi
7:00 PM50 °FHaze.3 mph54%30.18 "Hg3 mi
6:00 PM52 °FHaze.8 mph50%30.15 "Hg3 mi
5:00 PM54 °FHaze.3 mph51%30.15 "Hg3 mi
4:00 PM54 °FHaze.3 mph47%30.12 "Hg3 mi
3:00 PM54 °FHaze.1 mph47%30.15 "Hg3 mi
2:00 PM54 °FHaze.3 mph51%30.18 "Hg3 mi
1:00 PM52 °FHaze.1 mph58%30.21 "Hg2 mi
12:00 PM50 °FHaze.1 mph67%30.27 "Hg1 mi
11:00 AM48 °FHaze.No wind66%30.30 "Hg1 mi
10:00 AM46 °FFog.No wind71%30.30 "Hg1 mi
9:00 AM45 °FFog.No wind81%30.30 "Hg1 mi
8:00 AM43 °FFog.No wind81%30.27 "Hg1 mi
7:00 AM43 °FFog.No wind87%30.27 "Hg2 mi
6:00 AM43 °FFog.No wind87%30.24 "Hg2 mi
5:00 AM43 °FFog.No wind87%30.24 "Hg2 mi
4:00 AM45 °FFog.No wind81%30.27 "Hg2 mi
3:00 AM43 °FFog.No wind87%30.27 "Hg2 mi
Weather by CustomWeather, © 2014

See weather overviewHow to use our weather pages